When you browse on this site, cookies collect data to enhance your experience and personalize the content and advertising you see.
Visit our Privacy Policy to learn more. By continuing to use the site, you agree to this use of cookies and data.
  • In Österreich
  • Länderverzeichnis
  • Für 7 Tage
  • Wassertemperatur
  • Satellitenkarten
  • Wetterkarte
  • News
  • Widgets
  • user-avatar
    Anmelden

    Stündliche Wetter Andrychów

    Heute, 18 Januar, Freitag

    Zeit Temperatur Niederschläge Wind Luftdruck Luftfeuchtigkeit
    00:00 +1°C° 0.1 mm 4 m/S 723 mmHg 87%
    01:00 +1°C° 0 mm 4 m/S 722 mmHg 90%
    02:00 +1°C° 0.1 mm 4 m/S 723 mmHg 90%
    03:00 0°C° 0.1 mm 4 m/S 723 mmHg 90%
    04:00 0°C° 0.1 mm 4 m/S 723 mmHg 90%
    05:00 0°C° 0.1 mm 4 m/S 724 mmHg 90%
    06:00 -1°C° 0.1 mm 4 m/S 724 mmHg 89%
    07:00 0°C° 0 mm 3 m/S 724 mmHg 89%
    08:00 -1°C° 0.1 mm 4 m/S 725 mmHg 88%
    09:00 -1°C° 0.1 mm 4 m/S 725 mmHg 87%
    10:00 -1°C° 0.1 mm 4 m/S 726 mmHg 86%
    11:00 -1°C° 0.1 mm 4 m/S 726 mmHg 84%
    12:00 -2°C° 0.1 mm 4 m/S 727 mmHg 83%
    13:00 -2°C° 0.1 mm 4 m/S 727 mmHg 82%
    14:00 -2°C° 0.1 mm 4 m/S 728 mmHg 83%
    15:00 -3°C° 0.1 mm 4 m/S 728 mmHg 84%
    16:00 -4°C° 0.1 mm 3 m/S 729 mmHg 85%
    17:00 -4°C° 0 mm 3 m/S 730 mmHg 87%
    18:00 -4°C° 0 mm 2 m/S 730 mmHg 88%
    19:00 -4°C° 0 mm 2 m/S 731 mmHg 90%
    20:00 -5°C° 0 mm 2 m/S 731 mmHg 90%
    21:00 -3°C° 0 mm 1 m/S 732 mmHg 91%
    22:00 -3°C° 0 mm 1 m/S 732 mmHg 92%
    23:00 -4°C° 0 mm 1 m/S 733 mmHg 92%

    Morgen, 19 Januar, Samstag

    Zeit Temperatur Niederschläge Wind Luftdruck Luftfeuchtigkeit
    00:00 -6°C° 0 mm 1 m/S 733 mmHg 91%
    01:00 -6°C° 0 mm 1 m/S 733 mmHg 91%
    02:00 -8°C° 0 mm 2 m/S 733 mmHg 91%
    03:00 -8°C° 0 mm 2 m/S 733 mmHg 90%
    04:00 -8°C° 0 mm 2 m/S 733 mmHg 89%
    05:00 -8°C° 0 mm 2 m/S 733 mmHg 87%
    06:00 -8°C° 0 mm 2 m/S 733 mmHg 85%
    07:00 -9°C° 0 mm 2 m/S 733 mmHg 83%
    08:00 -7°C° 0 mm 2 m/S 733 mmHg 80%
    09:00 -4°C° 0 mm 1 m/S 734 mmHg 77%
    10:00 -3°C° 0 mm 1 m/S 734 mmHg 75%
    11:00 -2°C° 0 mm 1 m/S 734 mmHg 72%
    12:00 -1°C° 0 mm 1 m/S 733 mmHg 70%
    13:00 -1°C° 0 mm 0 m/S 733 mmHg 67%
    14:00 -1°C° 0 mm 1 m/S 733 mmHg 71%
    15:00 -2°C° 0 mm 1 m/S 733 mmHg 75%
    16:00 -3°C° 0 mm 1 m/S 732 mmHg 79%
    17:00 -4°C° 0 mm 1 m/S 732 mmHg 80%
    18:00 -4°C° 0 mm 1 m/S 732 mmHg 81%
    19:00 -6°C° 0 mm 1 m/S 732 mmHg 82%
    20:00 -6°C° 0 mm 1 m/S 732 mmHg 81%
    21:00 -6°C° 0 mm 1 m/S 732 mmHg 81%
    22:00 -6°C° 0 mm 1 m/S 732 mmHg 81%
    23:00 -6°C° 0 mm 1 m/S 731 mmHg 81%

    übermorgen, 20 Januar, Sonntag

    Zeit Temperatur Niederschläge Wind Luftdruck Luftfeuchtigkeit
    00:00 -6°C° 0 mm 1 m/S 731 mmHg 81%
    01:00 -7°C° 0 mm 1 m/S 731 mmHg 81%
    02:00 -7°C° 0 mm 1 m/S 731 mmHg 80%
    03:00 -7°C° 0 mm 1 m/S 730 mmHg 80%
    04:00 -6°C° 0 mm 1 m/S 730 mmHg 79%
    05:00 -6°C° 0 mm 1 m/S 730 mmHg 79%
    06:00 -6°C° 0 mm 1 m/S 730 mmHg 79%
    07:00 -6°C° 0 mm 1 m/S 730 mmHg 78%
    08:00 -5°C° 0 mm 0 m/S 730 mmHg 77%
    09:00 -4°C° 0 mm 0 m/S 730 mmHg 75%
    10:00 -3°C° 0 mm 0 m/S 730 mmHg 74%
    11:00 -3°C° 0 mm 0 m/S 730 mmHg 73%
    12:00 -2°C° 0 mm 0 m/S 729 mmHg 72%
    13:00 -1°C° 0 mm 1 m/S 729 mmHg 71%
    14:00 -1°C° 0 mm 1 m/S 729 mmHg 74%
    15:00 -3°C° 0 mm 0 m/S 729 mmHg 78%
    16:00 -4°C° 0 mm 0 m/S 729 mmHg 81%
    17:00 -5°C° 0 mm 0 m/S 730 mmHg 82%
    18:00 -5°C° 0 mm 0 m/S 730 mmHg 83%
    19:00 -6°C° 0 mm 0 m/S 730 mmHg 85%
    20:00 -6°C° 0 mm 0 m/S 731 mmHg 85%
    21:00 -7°C° 0 mm 0 m/S 731 mmHg 85%
    22:00 -7°C° 0 mm 0 m/S 731 mmHg 85%
    23:00 -7°C° 0 mm 0 m/S 732 mmHg 85%

    21 Januar, Montag

    Zeit Temperatur Niederschläge Wind Luftdruck Luftfeuchtigkeit
    00:00 -7°C° 0 mm 0 m/S 732 mmHg 86%
    01:00 -8°C° 0 mm 0 m/S 732 mmHg 86%
    02:00 -8°C° 0 mm 0 m/S 732 mmHg 87%
    03:00 -8°C° 0 mm 1 m/S 733 mmHg 87%
    04:00 -8°C° 0 mm 1 m/S 733 mmHg 88%
    05:00 -8°C° 0 mm 1 m/S 733 mmHg 88%
    06:00 -8°C° 0 mm 1 m/S 734 mmHg 88%
    07:00 -8°C° 0 mm 1 m/S 734 mmHg 88%
    08:00 -7°C° 0 mm 1 m/S 734 mmHg 87%
    09:00 -6°C° 0 mm 1 m/S 735 mmHg 85%
    10:00 -3°C° 0 mm 1 m/S 735 mmHg 84%
    11:00 -3°C° 0 mm 1 m/S 735 mmHg 83%
    12:00 -2°C° 0 mm 1 m/S 735 mmHg 82%
    13:00 -1°C° 0 mm 1 m/S 735 mmHg 82%
    14:00 -3°C° 0 mm 0 m/S 735 mmHg 84%
    15:00 -3°C° 0 mm 0 m/S 735 mmHg 86%
    16:00 -4°C° 0 mm 0 m/S 735 mmHg 88%
    17:00 -5°C° 0 mm 0 m/S 735 mmHg 88%
    18:00 -6°C° 0 mm 1 m/S 735 mmHg 88%
    19:00 -6°C° 0 mm 1 m/S 735 mmHg 88%
    20:00 -7°C° 0 mm 1 m/S 735 mmHg 88%
    21:00 -7°C° 0 mm 1 m/S 735 mmHg 87%
    22:00 -8°C° 0 mm 2 m/S 735 mmHg 87%
    23:00 -9°C° 0 mm 2 m/S 734 mmHg 86%

    22 Januar, Dienstag

    Zeit Temperatur Niederschläge Wind Luftdruck Luftfeuchtigkeit
    00:00 -9°C° 0 mm 2 m/S 734 mmHg 85%
    01:00 -9°C° 0 mm 2 m/S 734 mmHg 84%
    02:00 -9°C° 0 mm 2 m/S 733 mmHg 83%
    03:00 -9°C° 0 mm 2 m/S 733 mmHg 82%
    04:00 -9°C° 0 mm 2 m/S 732 mmHg 81%
    05:00 -9°C° 0 mm 2 m/S 732 mmHg 82%
    06:00 -9°C° 0 mm 2 m/S 732 mmHg 82%
    07:00 -9°C° 0 mm 2 m/S 731 mmHg 82%
    08:00 -8°C° 0 mm 2 m/S 731 mmHg 81%
    09:00 -7°C° 0 mm 2 m/S 731 mmHg 80%
    10:00 -5°C° 0 mm 2 m/S 730 mmHg 79%
    11:00 -4°C° 0 mm 2 m/S 730 mmHg 77%
    12:00 -3°C° 0 mm 2 m/S 729 mmHg 75%
    13:00 -2°C° 0 mm 2 m/S 728 mmHg 73%
    14:00 -2°C° 0 mm 2 m/S 727 mmHg 76%
    15:00 -3°C° 0 mm 2 m/S 726 mmHg 79%
    16:00 -2°C° 0 mm 1 m/S 725 mmHg 82%
    17:00 -3°C° 0 mm 1 m/S 725 mmHg 83%
    18:00 -6°C° 0 mm 2 m/S 724 mmHg 84%
    19:00 -7°C° 0 mm 2 m/S 724 mmHg 84%
    20:00 -8°C° 0 mm 2 m/S 723 mmHg 83%
    21:00 -8°C° 0 mm 2 m/S 722 mmHg 81%
    22:00 -9°C° 0 mm 2 m/S 722 mmHg 79%
    23:00 -9°C° 0 mm 2 m/S 721 mmHg 78%

    23 Januar, Mittwoch

    Zeit Temperatur Niederschläge Wind Luftdruck Luftfeuchtigkeit
    00:00 -9°C° 0 mm 2 m/S 720 mmHg 77%
    01:00 -9°C° 0 mm 2 m/S 720 mmHg 76%
    02:00 -8°C° 0 mm 2 m/S 719 mmHg 78%
    03:00 -6°C° 0 mm 1 m/S 718 mmHg 80%
    04:00 -6°C° 0 mm 1 m/S 718 mmHg 81%
    05:00 -4°C° 0.1 mm 1 m/S 717 mmHg 84%
    06:00 -4°C° 0.1 mm 1 m/S 717 mmHg 87%
    07:00 -3°C° 0.1 mm 1 m/S 716 mmHg 90%
    08:00 -3°C° 0 mm 1 m/S 716 mmHg 89%
    09:00 -2°C° 0 mm 1 m/S 716 mmHg 87%
    10:00 -1°C° 0 mm 1 m/S 715 mmHg 86%
    11:00 -1°C° 0 mm 1 m/S 715 mmHg 86%
    12:00 0°C° 0 mm 1 m/S 714 mmHg 86%
    13:00 +1°C° 0 mm 1 m/S 714 mmHg 87%
    14:00 +1°C° 0 mm 1 m/S 713 mmHg 89%
    15:00 0°C° 0 mm 1 m/S 712 mmHg 91%
    16:00 0°C° 0 mm 1 m/S 712 mmHg 93%
    17:00 -1°C° 0.1 mm 1 m/S 712 mmHg 93%
    18:00 -1°C° 0.1 mm 1 m/S 711 mmHg 94%
    19:00 -1°C° 0.1 mm 1 m/S 711 mmHg 94%
    20:00 -1°C° 0.1 mm 1 m/S 711 mmHg 94%
    21:00 -1°C° 0.1 mm 1 m/S 710 mmHg 94%
    22:00 -1°C° 0.1 mm 1 m/S 710 mmHg 94%
    23:00 -1°C° 0 mm 1 m/S 710 mmHg 93%
    Mehr zeigen